OE5RBO Weather Reports


time (UTC)temp
C
wind
direction
speed
KPH
gust
KPH
rain 1hr
cm
rain 24hr
cm
rain mn
cm
humidity
%
barometer
mb
20260503054646 15 0 0.0 0.0 0.00 0.00 0.00 74 1015.7
20260503052646 11 0 0.0 0.0 0.00 0.00 0.00 83 1015.9
20260503051645 9 0 0.0 0.0 0.00 0.00 0.00 89 1015.8
20260503050644 7 0 0.0 0.0 0.00 0.00 0.00 93 1015.9
20260503044644 7 0 0.0 0.0 0.00 0.00 0.00 91 1015.7
20260503043644 7 0 0.0 0.0 0.00 0.00 0.00 90 1015.8
20260503042643 7 0 0.0 0.0 0.00 0.00 0.00 89 1015.7
20260503041643 7 0 0.0 0.0 0.00 0.00 0.00 90 1015.6
20260503040643 7 0 0.0 0.0 0.00 0.00 0.00 90 1015.7
20260503035642 7 0 0.0 0.0 0.00 0.00 0.00 90 1015.6
20260503034642 7 356 0.0 1.6 0.00 0.00 0.00 90 1015.6
20260503033642 7 207 1.6 4.8 0.00 0.00 0.00 91 1015.4
20260503032641 7 0 0.0 0.0 0.00 0.00 0.00 92 1015.5
20260503031640 7 0 0.0 0.0 0.00 0.00 0.00 89 1015.4
20260503030640 7 48 0.0 1.6 0.00 0.00 0.00 90 1015.4
20260503025640 7 46 0.0 1.6 0.00 0.00 0.00 89 1015.5
20260503024640 8 0 0.0 0.0 0.00 0.00 0.00 88 1015.5
20260503023639 8 0 0.0 0.0 0.00 0.00 0.00 86 1015.6
20260503022639 9 0 0.0 0.0 0.00 0.00 0.00 84 1015.7
20260503020638 8 0 0.0 0.0 0.00 0.00 0.00 85 1015.8
20260503014638 9 0 0.0 0.0 0.00 0.00 0.00 83 1015.9
20260503013637 10 0 0.0 0.0 0.00 0.00 0.00 83 1015.9
20260503012636 10 0 0.0 0.0 0.00 0.00 0.00 79 1015.9
20260503011636 10 0 0.0 0.0 0.00 0.00 0.00 79 1016.1
20260503005636 10 0 0.0 0.0 0.00 0.00 0.00 80 1016.2
20260503002635 11 0 0.0 0.0 0.00 0.00 0.00 76 1016.4
20260503000634 11 0 0.0 0.0 0.00 0.00 0.00 75 1016.5
20260502234633 11 0 0.0 0.0 0.00 0.00 0.00 74 1016.6
20260502232631 11 0 0.0 0.0 0.00 0.00 0.00 71 1016.7
20260502231631 12 0 0.0 0.0 0.00 0.00 0.00 70 1016.7
20260502230631 12 0 0.0 0.0 0.00 0.00 0.00 69 1016.7
20260502225630 12 0 0.0 0.0 0.00 0.00 0.00 69 1016.8
20260502222629 12 0 0.0 0.0 0.00 0.00 0.00 65 1016.9
20260502221629 13 0 0.0 0.0 0.00 0.00 0.00 64 1016.9
20260502220628 13 20 0.0 3.2 0.00 0.00 0.00 63 1016.9
20260502215628 13 0 0.0 0.0 0.00 0.00 0.00 58 1016.9
20260502214628 13 65 0.0 3.2 0.00 0.00 0.00 58 1016.9
20260502213627 14 46 1.6 3.2 0.00 0.00 0.00 58 1016.9
20260502212627 14 48 4.8 6.4 0.00 0.00 0.00 57 1016.7
20260502210626 13 49 1.6 4.8 0.00 0.00 0.00 56 1017.0
20260502204626 15 55 0.0 6.4 0.00 0.00 0.00 57 1017.2
20260502203625 16 62 1.6 4.8 0.00 0.00 0.00 47 1017.1
20260502202625 16 0 0.0 0.0 0.00 0.00 0.00 50 1017.2
20260502201625 17 198 1.6 6.4 0.00 0.00 0.00 43 1017.2
20260502200624 17 70 1.6 6.4 0.00 0.00 0.00 41 1017.2
20260502195624 17 41 1.6 4.8 0.00 0.00 0.00 41 1017.3
20260502193623 18 28 4.8 8.0 0.00 0.00 0.00 39 1017.3
20260502191622 18 65 6.4 9.7 0.00 0.00 0.00 37 1017.3
20260502190622 19 18 6.4 11.3 0.00 0.00 0.00 36 1017.2
20260502184621 20 44 8.0 14.5 0.00 0.00 0.00 35 1017.2
20260502182620 20 28 8.0 12.9 0.00 0.00 0.00 37 1017.2
20260502181620 20 21 6.4 11.3 0.00 0.00 0.00 38 1016.8
20260502180620 20 46 3.2 6.4 0.00 0.00 0.00 40 1017.2
20260502163616 25 42 3.2 9.7 0.00 0.00 0.00 29 1017.5
20260502161616 25 6 6.4 14.5 0.00 0.00 0.00 31 1017.6
20260502151614 25 177 8.0 14.5 0.00 0.00 0.00 29 1018.3
20260502150614 26 207 6.4 11.3 0.00 0.00 0.00 32 1018.4
20260502130609 26 318 4.8 12.9 0.00 0.00 0.00 35 1019.9
20260502123608 25 239 4.8 11.3 0.00 0.00 0.00 35 1020.1
20260502122607 25 205 3.2 11.3 0.00 0.00 0.00 35 1020.2
20260502121607 25 219 3.2 16.1 0.00 0.00 0.00 35 1020.4
20260502120607 25 198 8.0 14.5 0.00 0.00 0.00 34 1020.4
20260502115606 25 197 4.8 12.9 0.00 0.00 0.00 34 1020.5
20260502114606 25 203 4.8 14.5 0.00 0.00 0.00 33 1020.6
20260502113606 25 205 3.2 11.3 0.00 0.00 0.00 34 1020.7
20260502112605 25 179 3.2 11.3 0.00 0.00 0.00 35 1020.8
20260502111605 24 210 3.2 9.7 0.00 0.00 0.00 34 1020.9
20260502110605 23 205 8.0 16.1 0.00 0.00 0.00 38 1021.0
20260502105604 25 207 3.2 12.9 0.00 0.00 0.00 33 1021.0
20260502104604 24 13 4.8 9.7 0.00 0.00 0.00 34 1021.1
20260502101603 24 211 1.6 4.8 0.00 0.00 0.00 38 1021.4
20260502100602 23 58 6.4 17.7 0.00 0.00 0.00 36 1021.4
20260502090600 21 205 3.2 8.0 0.00 0.00 0.00 46 1022.1
20260502070556 18 41 1.6 4.8 0.00 0.00 0.00 62 1022.6
20260502065556 17 0 0.0 0.0 0.00 0.00 0.00 64 1022.6
20260502063555 15 77 0.0 1.6 0.00 0.00 0.00 69 1022.6